Latest Coastal Weather Observations for Cape Otway

IDV60701

Issued at 2:25 pm EDT Wednesday 22 October 2014 (issued every 10 minutes, with the page automatically refreshed every 10 minutes)

About coastal observations | Map of coastal stations | Coastal observations for VIC | Marine services | Other Formats
Station Details ID: 090015 Name: CAPE OTWAY LIGHTHOUSE Lat: -38.86 Lon: 143.51 Height: 82.0 m
Data from the previous 72 hours. | See also: Recent months at Cape Otway
Date/Time
EDT
Temp

°C
Wind Pressure Rain
since 9am
mm
Weather Cloud Vis
km
Sea
Height
m
Swell
Dir
 
Speed
knots
Gust
knots
hPa Trend Height
m
Period
s
Dir
22/02:00pm 24.9 CALM 0 3 1016.5 - 0.0 - - - - - - -
22/01:30pm 23.2 CALM 0 3 1016.3 - 0.0 - - - - - - -
22/01:00pm 24.8 E 1 5 1016.0 - 0.0 - - - - - - -
22/12:30pm 24.5 E 2 5 1016.6 - 0.0 - - - - - - -
22/12:00pm 24.1 ESE 2 5 1016.9 - 0.0 - - - - - - -
22/11:30am 24.3 E 3 6 1017.1 - 0.0 - - - - - - -
22/11:00am 23.5 E 2 5 1017.7 - 0.0 - - - - - - -
22/10:30am 22.5 ESE 4 6 1017.7 - 0.0 - - - - - - -
22/10:00am 22.8 ESE 2 4 1018.1 - 0.0 - - - - - - -
22/09:30am 22.4 ENE 2 5 1018.5 - 0.0 - - - - - - -
22/09:00am 21.1 CALM 0 0 1018.3 F 0.0 Fine Mostly clear 20 1 1.0 8 S
22/08:30am 20.6 ESE 1 5 1018.2 - 0.0 - - - - - - -
22/08:00am 18.3 E 6 8 1017.7 - 0.0 - - - - - - -
22/07:30am 16.1 ENE 7 9 1017.7 - 0.0 - - - - - - -
22/07:00am 15.9 E 2 6 1018.1 - 0.0 - - - - - - -
22/06:30am 15.1 NNW 6 8 1017.6 - 0.0 - - - - - - -
22/06:00am 13.5 E 5 7 1017.3 - 0.0 - - - - - - -
22/05:30am 14.9 NE 8 11 1017.2 - 0.0 - - - - - - -
22/05:00am 13.8 ENE 7 10 1017.5 - 0.0 - - - - - - -
22/04:30am 13.7 NE 8 11 1017.9 - 0.0 - - - - - - -
22/04:00am 13.2 ENE 6 8 1018.3 - 0.0 - - - - - - -
22/03:30am 13.6 ENE 8 10 1018.1 - 0.0 - - - - - - -
22/03:00am 13.5 E 8 10 1018.7 - 0.0 - - - - - - -
22/02:30am 13.9 ENE 9 12 1018.9 - 0.0 - - - - - - -
22/02:00am 14.5 NE 10 14 1019.4 - 0.0 - - - - - - -
22/01:30am 15.0 NE 13 17 1019.7 - 0.0 - - - - - - -
22/01:00am 15.0 NE 14 17 1020.2 - 0.0 - - - - - - -
22/12:30am 14.7 NE 14 19 1020.5 - 0.0 - - - - - - -
22/12:00am 14.4 ENE 14 19 1020.8 - 0.0 - - - - - - -
 
Date/Time
EDT
Temp

°C
Wind Pressure Rain
since 9am
mm
Weather Cloud Vis
km
Sea
Height
m
Swell
Dir
 
Speed
knots
Gust
knots
hPa Trend Height
m
Period
s
Dir
21/11:30pm 14.5 ENE 16 21 1021.1 - 0.0 - - - - - - -
21/11:00pm 14.5 NE 16 21 1021.6 - 0.0 - - - - - - -
21/10:30pm 14.8 ENE 16 24 1021.8 - 0.0 - - - - - - -
21/10:00pm 14.8 ENE 17 23 1022.1 - 0.0 - - - - - - -
21/09:30pm 14.7 ENE 17 24 1022.1 - 0.0 - - - - - - -
21/09:00pm 14.8 ENE 17 24 1022.2 - 0.0 - - - - - - -
21/08:30pm 14.9 ENE 16 22 1022.2 - 0.0 - - - - - - -
21/08:00pm 15.1 ENE 16 22 1022.3 - 0.0 - - - - - - -
21/07:30pm 15.3 ENE 16 23 1022.5 - 0.0 - - - - - - -
21/07:00pm 15.4 ENE 17 23 1022.3 - 0.0 - - - - - - -
21/06:30pm 15.7 ENE 16 24 1022.5 - 0.0 - - - - - - -
21/06:00pm 16.3 ENE 17 22 1022.8 - 0.0 - - - - - - -
21/05:30pm 16.2 ENE 16 21 1022.9 - 0.0 - - - - - - -
21/05:00pm 16.8 ENE 14 22 1023.0 - 0.0 - - - - - - -
21/04:30pm 16.7 ENE 14 19 1023.3 - 0.0 - - - - - - -
21/04:00pm 16.6 ENE 15 19 1023.4 - 0.0 - - - - - - -
21/03:30pm 16.8 ENE 15 20 1023.7 - 0.0 - - - - - - -
21/03:00pm 16.5 ENE 15 22 1023.9 F 0.0 Fine Mostly clear 20 2 2.0 9 S
21/02:30pm 16.3 ENE 15 23 1024.3 - 0.0 - - - - - - -
21/02:00pm 16.7 ENE 16 23 1024.6 - 0.0 - - - - - - -
21/01:30pm 16.2 ENE 17 24 1024.9 - 0.0 - - - - - - -
21/01:00pm 15.0 E 16 23 1025.2 - 0.0 - - - - - - -
21/12:30pm 14.9 E 16 25 1025.7 - 0.0 - - - - - - -
21/12:26pm 14.7 E 15 25 1025.7 - 0.0 - - - - - - -
21/12:24pm 14.7 E 15 25 1025.7 - 0.0 - - - - - - -
21/12:00pm 14.6 E 15 21 1026.2 - 0.0 - - - - - - -
21/11:30am 14.4 E 14 20 1026.2 - 0.0 - - - - - - -
21/11:00am 14.4 E 12 19 1026.6 - 0.0 - - - - - - -
21/10:30am 14.3 E 13 20 1026.7 - 0.0 - - - - - - -
21/10:00am 14.2 E 15 22 1026.6 - 0.0 - - - - - - -
21/09:30am 13.7 E 18 26 1026.4 - 0.0 - - - - - - -
21/09:06am 13.7 ENE 15 25 1026.6 - 0.0 - - - - - - -
21/09:04am 13.7 ENE 15 25 1026.6 - 0.0 - - - - - - -
21/09:00am 13.6 E 17 25 1026.7 R 0.0 Fine Partly cloudy 20 2 2.0 9 S
21/08:30am 13.2 E 16 26 1026.5 - 0.0 - - - - - - -
21/08:01am 12.9 ENE 17 27 1026.0 - 0.0 - - - - - - -
21/08:00am 12.9 ENE 17 27 1026.0 - 0.0 - - - - - - -
21/07:45am 12.7 E 19 29 1025.8 - 0.0 - - - - - - -
21/07:43am 12.7 E 19 29 1025.8 - 0.0 - - - - - - -
21/07:30am 12.4 E 20 28 1025.7 - 0.0 - - - - - - -
21/07:00am 12.2 E 20 28 1025.3 - 0.0 - - - - - - -
21/06:30am 12.0 E 21 34 1025.2 - 0.0 - - - - - - -
21/06:00am 12.1 E 24 38 1024.7 - 0.0 - - - - - - -
21/05:30am 12.1 E 24 36 1024.4 - 0.0 - - - - - - -
21/05:00am 12.0 E 25 38 1024.6 - 0.0 - - - - - - -
21/04:30am 12.1 E 26 37 1024.6 - 0.0 - - - - - - -
21/04:00am 12.1 E 23 33 1024.7 - 0.0 - - - - - - -
21/03:30am 12.1 E 24 37 1025.2 - 0.0 - - - - - - -
21/03:00am 12.2 E 26 41 1025.6 - 0.0 - - - - - - -
21/02:31am 12.2 E 25 35 1025.8 - 0.0 - - - - - - -
21/02:30am 12.2 E 26 35 1025.8 - 0.0 - - - - - - -
21/02:00am 12.2 E 24 34 1026.2 - 0.0 - - - - - - -
21/01:30am 12.2 E 25 37 1026.6 - 0.0 - - - - - - -
21/01:00am 12.3 E 23 36 1027.2 - 0.0 - - - - - - -
21/12:37am 12.3 E 23 33 1027.5 - 0.0 - - - - - - -
21/12:30am 12.3 E 24 33 1027.5 - 0.0 - - - - - - -
21/12:00am 12.5 E 22 33 1028.0 - 0.0 - - - - - - -
 
Date/Time
EDT
Temp

°C
Wind Pressure Rain
since 9am
mm
Weather Cloud Vis
km
Sea
Height
m
Swell
Dir
 
Speed
knots
Gust
knots
hPa Trend Height
m
Period
s
Dir
20/11:30pm 12.6 E 22 35 1028.0 - 0.0 - - - - - - -
20/11:00pm 12.5 E 24 36 1028.1 - 0.0 - - - - - - -
20/10:35pm 12.6 E 20 30 1028.4 - 0.0 - - - - - - -
20/10:30pm 12.5 E 21 29 1028.4 - 0.0 - - - - - - -
20/10:00pm 12.5 E 21 33 1028.3 - 0.0 - - - - - - -
20/09:30pm 12.4 E 20 31 1028.4 - 0.0 - - - - - - -
20/09:07pm 12.5 E 19 29 1028.6 - 0.0 - - - - - - -
20/09:00pm 12.3 E 17 27 1028.5 - 0.0 - - - - - - -
20/08:30pm 12.3 E 18 29 1028.7 - 0.0 - - - - - - -
20/08:00pm 12.2 E 17 29 1028.5 - 0.0 - - - - - - -
20/07:30pm 12.2 E 16 29 1028.8 - 0.0 - - - - - - -
20/07:00pm 12.3 E 16 31 1029.0 - 0.0 - - - - - - -
20/06:30pm 12.5 E 15 28 1029.0 - 0.0 - - - - - - -
20/06:00pm 12.5 E 16 29 1029.6 - 0.0 - - - - - - -
20/05:30pm 12.9 E 17 31 1029.3 - 0.0 - - - - - - -
20/05:00pm 12.9 E 17 28 1029.5 - 0.0 - - - - - - -
20/04:30pm 13.2 E 15 25 1029.9 - 0.0 - - - - - - -
20/04:11pm 13.3 E 15 26 1029.9 - 0.0 - - - - - - -
20/04:09pm 13.3 E 15 26 1029.9 - 0.0 - - - - - - -
20/04:00pm 13.4 E 14 24 1030.0 - 0.0 - - - - - - -
20/03:30pm 13.5 E 14 23 1030.3 - 0.0 - - - - - - -
20/03:00pm 13.8 E 13 23 1030.4 F 0.0 Fine Mostly clear 20 2 2.0 9 S
20/02:30pm 13.5 E 14 23 1030.6 - 0.0 - - - - - - -
20/02:00pm 13.6 E 14 21 1030.9 - 0.0 - - - - - - -
20/01:30pm 13.2 E 13 22 1031.1 - 0.0 - - - - - - -
20/01:00pm 12.9 E 17 25 1031.4 - 0.0 - - - - - - -
20/12:30pm 13.1 E 19 28 1031.5 - 0.0 - - - - - - -
20/12:12pm 12.7 E 15 25 1031.7 - 0.0 - - - - - - -
20/12:10pm 12.7 E 15 25 1031.7 - 0.0 - - - - - - -
20/12:00pm 12.7 E 16 24 1031.7 - 0.0 - - - - - - -
20/11:41am 12.6 E 15 25 1032.2 - 0.0 - - - - - - -
20/11:39am 12.6 E 15 25 1032.2 - 0.0 - - - - - - -
20/11:30am 12.8 E 17 25 1032.4 - 0.0 - - - - - - -
20/11:25am 12.6 E 15 25 1032.4 - 0.0 - - - - - - -
20/11:00am 12.8 E 14 23 1032.5 - 0.0 - - - - - - -
20/10:30am 12.4 E 14 22 1032.3 - 0.0 - - - - - - -
20/10:06am 12.2 E 17 27 1032.2 - 0.0 - - - - - - -
20/10:04am 12.2 E 17 27 1032.2 - 0.0 - - - - - - -
20/10:00am 12.1 E 17 25 1032.1 - 0.0 - - - - - - -
20/09:30am 11.7 E 20 27 1031.9 - 0.0 - - - - - - -
20/09:05am 11.2 E 16 26 1032.0 - 0.0 - - - - - - -
20/09:03am 11.2 E 16 26 1032.0 - 0.0 - - - - - - -
20/09:00am 11.4 ESE 19 26 1031.8 R 0.0 Fine Mostly cloudy 20 2 2.0 9 S
20/08:35am 11.6 E 18 28 1031.5 - 0.0 - - - - - - -
20/08:33am 11.6 E 18 28 1031.5 - 0.0 - - - - - - -
20/08:30am 11.5 E 19 28 1031.5 - 0.0 - - - - - - -
20/08:07am 10.8 E 18 28 1031.4 - 0.0 - - - - - - -
20/08:01am 10.8 E 18 28 1031.2 - 0.0 - - - - - - -
20/08:00am 10.7 E 19 28 1031.2 - 0.0 - - - - - - -
20/07:30am 10.7 E 20 30 1031.1 - 0.0 - - - - - - -
20/07:10am 10.6 E 16 26 1030.8 - 0.0 - - - - - - -
20/07:00am 10.8 E 19 27 1030.4 - 0.0 - - - - - - -
20/06:30am 10.6 E 16 27 1030.4 - 0.0 - - - - - - -
20/06:27am 10.6 E 17 27 1030.3 - 0.0 - - - - - - -
20/06:25am 10.6 E 17 27 1030.3 - 0.0 - - - - - - -
20/06:00am 10.7 ESE 21 28 1029.5 - 0.0 - - - - - - -
20/05:30am 11.0 ESE 22 29 1029.3 - 0.0 - - - - - - -
20/05:18am 11.0 E 15 25 1029.2 - 0.0 - - - - - - -
20/05:16am 11.0 E 15 25 1029.2 - 0.0 - - - - - - -
20/05:00am 10.7 E 16 24 1029.0 - 0.0 - - - - - - -
20/04:57am 10.5 E 17 27 1029.2 - 0.0 - - - - - - -
20/04:44am 10.8 ESE 20 27 1029.2 - 0.0 - - - - - - -
20/04:42am 10.8 ESE 17 27 1029.2 - 0.0 - - - - - - -
20/04:30am 10.6 SE 10 20 1029.4 - 0.0 - - - - - - -
20/04:00am 10.3 SE 9 16 1029.7 - 0.0 - - - - - - -
20/03:30am 10.5 SSE 8 15 1030.0 - 0.0 - - - - - - -
20/03:00am 11.1 SE 11 21 1029.7 - 0.0 - - - - - - -
20/02:30am 11.0 SE 12 19 1029.8 - 0.0 - - - - - - -
20/02:00am 11.2 SE 9 17 1029.7 - 0.0 - - - - - - -
20/01:30am 11.4 SE 13 21 1029.9 - 0.0 - - - - - - -
20/01:00am 11.3 W 7 11 1029.8 - 0.0 - - - - - - -
20/12:30am 11.2 WSW 6 11 1030.0 - 0.0 - - - - - - -
20/12:00am 11.4 WSW 7 12 1029.6 - 0.0 - - - - - - -
 
Date/Time
EDT
Temp

°C
Wind Pressure Rain
since 9am
mm
Weather Cloud Vis
km
Sea
Height
m
Swell
Dir
 
Speed
knots
Gust
knots
hPa Trend Height
m
Period
s
Dir
19/11:30pm 11.1 WSW 7 12 1029.5 - 0.0 - - - - - - -
19/11:00pm 11.7 SW 9 13 1029.6 - 0.0 - - - - - - -
19/10:30pm 11.6 SW 10 17 1029.2 - 0.0 - - - - - - -
19/10:00pm 11.6 SSW 12 17 1029.2 - 0.0 - - - - - - -
19/09:30pm 11.6 SW 10 15 1028.9 - 0.0 - - - - - - -
19/09:00pm 10.8 SSW 15 19 1028.5 - 0.0 - - - - - - -
19/08:30pm 11.5 SW 11 15 1027.2 - 0.0 - - - - - - -
19/08:00pm 11.4 SW 13 17 1026.9 - 0.0 - - - - - - -
19/07:30pm 11.4 SW 12 17 1025.9 - 0.0 - - - - - - -
19/07:00pm 11.7 SSW 16 23 1024.7 - 0.0 - - - - - - -
19/06:30pm 13.5 SSW 13 18 1024.5 - 0.0 - - - - - - -
19/06:00pm 13.6 SW 13 17 1024.1 - 0.0 - - - - - - -
19/05:30pm 13.6 SW 15 18 1024.0 - 0.0 - - - - - - -
19/05:00pm 13.4 SW 14 20 1023.2 - 0.0 - - - - - - -
19/04:30pm 13.9 WSW 14 20 1023.7 - 0.0 - - - - - - -
19/04:00pm 14.2 SW 10 13 1022.3 - 0.0 - - - - - - -
19/03:30pm 14.5 SW 12 16 1022.4 - 0.0 - - - - - - -
19/03:00pm 14.5 SW 12 15 1021.8 R 0.0 Fine Mostly cloudy 20 1 1.0 9 S
19/02:30pm 14.5 SW 10 13 1021.3 - 0.0 - - - - - - -

Other Formats:

Comma delimited format used in spreadsheet applications
http://www.bom.gov.au/fwo/IDV60701/IDV60701.94842.axf

JavaScript Object Notation format (JSON) in row-major order
http://www.bom.gov.au/fwo/IDV60701/IDV60701.94842.json